{"data":{"norad_id":62696,"intl_designator":"2025-009CR","name":"LEMUR-2-STAR-FOX","alt_names":[],"object_type":"PAYLOAD","status":"ACTIVE","operator":null,"country":"US","launch_date":"2025-01-14","launch_site_code":"AFWTR","launch_vehicle":null,"mission":null,"orbit_class":"UNKNOWN","rcs_meters":null,"size_class":null,"mass_kg":null,"dimensions":null,"purposes":["earth_obs"],"wikipedia_slug":null,"has_3d_model":false,"image_url":null,"decayed_at":null,"tle_current":{"epoch":"2026-05-25T04:19:48.224064Z","epoch_age_seconds":69575,"freshness":"FRESH","line1":"1 62696U 25009CR  26145.18041926  .00007942  00000+0  60895-3 0  9996","line2":"2 62696  97.6904 226.9653 0001964 178.8174 181.3056 15.02085933 74107","mean_motion":15.02085933,"eccentricity":0.0001964,"inclination_deg":97.6904,"raan_deg":226.9653,"arg_perigee_deg":178.8174,"mean_anomaly_deg":181.3056,"bstar":0.00060895,"rev_number":7410,"period_min":95.866685677829,"perigee_km":559.10244559329,"apogee_km":561.82792853237,"semimajor_km":6938.6021870628,"source":"CELESTRAK","updated_at":"2026-05-25T13:38:13.537562Z"}}}